Home   Weather   Squamish   Past weeks
Flag for Canada

Past Weather in Squamish, British Columbia, Canada — Yesterday and Last 2 Weeks

Now
78 °F

Pleasantly warm.


Feels Like: 78 °F
Forecast: 69 / 53 °F
Wind: 7 mph from Southeast

Location: Squamish Airport

Current Time: Jul 22, 2019 at 8:22:01 pm

Latest Report: Jul 22, 2019 at 7:00 pm


Visibility: N/A

Pressure: 29.96 "Hg

Humidity: 37%

Dew Point: 49 °F

Location of SquamishLocation

Past Weather in Squamish — Graph

°F

Squamish Temperature Yesterday

Maximum temperature yesterday: 86 °F (at 4:00 pm)
Minimum temperature yesterday: 52 °F (at 6:00 am)
Average temperature yesterday: 68 °F

High & Low Weather Summary for the Past Weeks

 TemperatureHumidityPressure
High86 °F (Jul 21, 4:00 pm)100% (Jul 9, 11:00 pm)30.14 "Hg (Jul 9, 11:00 pm)
Low47 °F (Jul 19, 6:00 am)22% (Jul 21, 6:00 pm)29.73 "Hg (Jul 17, 7:00 pm)
Average64 °F74%29.98 "Hg
* Reported Jul 7 7:00 pm — Jul 22 7:00 pm, Squamish. Weather by CustomWeather, © 2019

Note: Actual official high and low records may vary slightly from our data, if they occured in-between our weather recording intervals... More about our weather records

Advertising

Squamish Weather History for the Previous 24 Hours

Scroll right to see more
 ConditionsComfort  
Time TempWeatherWind HumidityBarometerVisibility
7:00 pm
Mon, Jul 22
78 °FPleasantly warm.7 mph37%29.96 "HgN/A
6:00 pm77 °FPleasantly warm.8 mph37%29.95 "HgN/A
5:00 pm80 °FPleasantly warm.10 mph33%29.95 "HgN/A
4:00 pm81 °FPleasantly warm.8 mph32%29.94 "HgN/A
3:00 pm80 °FPleasantly warm.8 mph34%29.94 "HgN/A
2:00 pm81 °FPleasantly warm.8 mph34%29.94 "HgN/A
1:00 pm79 °FPleasantly warm.6 mph35%29.94 "HgN/A
12:00 pm74 °FMild.9 mph43%29.96 "HgN/A
11:00 am75 °FMild.6 mph40%29.96 "HgN/A
10:00 am72 °FMild.6 mph48%29.95 "HgN/A
9:00 am67 °FMild.2 mph58%29.95 "HgN/A
8:00 am62 °FCool.1 mph68%29.95 "HgN/A
7:00 am56 °FCool.1 mph83%29.95 "HgN/A
6:00 am55 °FCool.1 mph81%29.94 "HgN/A
5:00 am55 °FCool.2 mph84%29.94 "HgN/A
4:00 am57 °FCool.2 mph80%29.94 "HgN/A
3:00 am57 °FCool.1 mph80%29.93 "HgN/A
2:00 am58 °FCool.1 mph77%29.93 "HgN/A
1:00 am59 °FCool.2 mph75%29.93 "HgN/A
12:00 am60 °FCool.1 mph74%29.93 "HgN/A
11:00 pm
Sun, Jul 21
62 °FCool.1 mph73%29.92 "HgN/A
10:00 pm65 °FMild.2 mph66%29.92 "HgN/A
9:00 pm69 °FMild.1 mph57%29.90 "HgN/A
8:00 pm76 °FMild.No wind39%29.89 "HgN/A
Weather by CustomWeather, © 2019

See weather overview